Find Starlink 34101

NORAD ID: 63812 Int'l Des: 2025-092 Owner: SPXS Country: US Constellation: starlink operational
LEOCIRCULAR

Current View

Loading 3D Globe...

About Starlink 34101

Starlink 34101 (NORAD 63812) is a starlink constellation satellite (v2 mini) launched May 4, 2025 by SPXS of US. It operates in LEO, CIRCULAR orbit with a mass of 575.00 kg.

About Starlink 34101

Description loading...

Upcoming Passes

Passes for default location (London). Set your location on the main map for personalized predictions.

Altitude History

Loading altitude history...

Two-Line Element Set

1 63812U 25092J 26170.46009490 .00008839 00000-0 33022-3 0 9997
2 63812 42.9998 317.4049 0001184 243.1874 116.8857 15.27591957 64124
Epoch: Jun 19, 2026 • Age: 25 hours

Current Status

Altitude 485.1 km
Velocity 7.63 km/s
Sub-Earth Point 34.66°N, 95.72°W
Launch Date May 4, 2025
Age 1.1 years
Type internet

Technical Details

Classification Payload
Mass 575.00 kg
Dry Mass 530.00 kg
Total Mass 575.00 kg
Length 0.30 m
Diameter 4.10 m
Span 29.00 m
Shape Box + pan
Manufacturer SPXS
Bus Type Starlink V2MO
Phase Status In Orbit
Owner/State SPXS/US

Most Searched